{"data":{"norad_id":39522,"epoch":"2026-05-25T03:56:38.608800Z","epoch_age_seconds":61579,"freshness":"FRESH","line1":"1 39522U 14007A   26145.16433575  .00000144  00000+0  00000+0 0  9992","line2":"2 39522   0.0453 296.9857 0001877  36.2865  10.6317  1.00270391 44733","mean_motion":1.00270391,"eccentricity":0.0001877,"inclination_deg":0.0453,"raan_deg":296.9857,"arg_perigee_deg":36.2865,"mean_anomaly_deg":10.6317,"bstar":0,"rev_number":4473,"period_min":1436.1168692361,"perigee_km":35779.071360981,"apogee_km":35794.900148063,"semimajor_km":42165.122754522,"source":"CELESTRAK","updated_at":"2026-05-25T13:38:13.948830Z"}}